Home > Weather > Lund > Past weeks

Flag for Sweden Past Weather in Lund, Sweden — Yesterday and Last 2 Weeks

Now
52 °F

Sunny.


Feels Like: 52 °F
Forecast: 45 / 67 °F
Wind: 2 mph from North

Location: Malmo / Sturup

Current Time: May 26, 2016 at 10:24:27 PM

Latest Report: May 26, 2016 at 9:50 PM


Visibility: 10 mi

Pressure: 30.04 "Hg

Humidity: 88%

Dew Point: 48 °F

Location of LundLocation

Past Weather in Lund — Graph

°F

Lund Temperature Yesterday

Maximum temperature yesterday: 75 °F (at 2:20 PM)
Minimum temperature yesterday: 48 °F (at 2:20 AM)
Average temperature yesterday: 62 °F

High & Low Weather Summary for the Past Weeks

 TemperatureHumidityPressure
High77 °F (May 23, 1:50 PM)100% (May 19, 12:50 AM)30.04 "Hg (May 19, 12:50 AM)
Low36 °F (May 13, 5:20 AM)33% (May 13, 4:20 PM)29.53 "Hg (May 13, 6:50 PM)
Average56 °F70%29.82 "Hg
* Reported May 11 9:20 PM — May 26 9:20 PM, Lund, Weather by CustomWeather, © 2016

Note: Actual official high and low records may vary slightly from our data, if they occured in-between our weather recording intervals... More about our weather records

Advertising

Lund Weather History for the Previous 24 Hours

Scroll right to see more
 ConditionsComfort  
Time TempWeatherWind HumidityBarometerVisibility
9:20 PM
Thu, May 26
54 °FSunny.3 mph88%30.04 "Hg10 mi
8:50 PM55 °FSunny.3 mph82%30.04 "Hg10 mi
8:20 PM57 °FSunny.6 mph77%30.04 "Hg10 mi
7:50 PM57 °FSunny.6 mph77%30.04 "Hg10 mi
7:20 PM59 °FSunny.6 mph72%30.04 "Hg10 mi
6:50 PM59 °FSunny.5 mph72%30.04 "Hg10 mi
6:20 PM57 °FSunny.6 mph77%30.04 "Hg10 mi
5:50 PM57 °FMostly cloudy.6 mph77%30.04 "HgN/A
5:20 PM59 °FSunny.6 mph72%30.04 "Hg10 mi
4:50 PM57 °FScattered clouds.6 mph77%30.04 "HgN/A
4:20 PM57 °FPartly sunny.7 mph77%30.04 "HgN/A
3:50 PM57 °FPartly sunny.6 mph77%30.04 "HgN/A
3:20 PM57 °FPartly sunny.6 mph72%30.04 "HgN/A
2:50 PM57 °FPartly sunny.5 mph72%30.04 "HgN/A
2:20 PM59 °FPartly sunny.2 mph68%30.04 "HgN/A
1:50 PM57 °FPartly sunny.2 mph72%30.04 "HgN/A
1:20 PM57 °FPartly sunny.2 mph67%30.04 "HgN/A
12:50 PM55 °FBroken clouds.3 mph72%30.04 "HgN/A
12:20 PM55 °FPartly sunny.3 mph77%30.04 "HgN/A
11:50 AM55 °FPartly sunny.3 mph77%30.04 "HgN/A
11:20 AM54 °FPartly sunny.3 mph77%30.04 "HgN/A
10:50 AM54 °FPartly sunny.6 mph77%30.04 "HgN/A
10:20 AM54 °FPartly sunny.7 mph77%30.04 "HgN/A
9:50 AM52 °FPartly sunny.7 mph82%30.04 "HgN/A
9:20 AM52 °FBroken clouds.8 mph82%30.04 "HgN/A
8:50 AM52 °FPartly sunny.8 mph88%30.04 "HgN/A
8:20 AM52 °FPartly sunny.7 mph88%30.04 "HgN/A
7:50 AM52 °FRain showers. Broken clouds.5 mph88%30.04 "Hg5 mi
7:20 AM52 °FPartly sunny.9 mph88%30.04 "HgN/A
6:50 AM52 °FPartly sunny.9 mph94%30.04 "HgN/A
6:20 AM52 °FLow clouds.9 mph88%30.01 "HgN/A
5:50 AM52 °FLow clouds.8 mph88%30.01 "HgN/A
5:20 AM52 °FMostly cloudy.9 mph88%30.01 "HgN/A
4:50 AM52 °FOvercast.9 mph88%30.01 "HgN/A
4:20 AM54 °FOvercast.8 mph82%30.01 "HgN/A
3:50 AM54 °FOvercast.10 mph82%30.01 "HgN/A
3:20 AM54 °FOvercast.10 mph82%30.01 "HgN/A
2:50 AM54 °FOvercast.10 mph82%30.01 "HgN/A
2:20 AM54 °FMostly cloudy.13 mph82%30.01 "HgN/A
1:50 AM54 °FOvercast.12 mph88%30.01 "HgN/A
1:20 AM54 °FOvercast.12 mph82%30.01 "HgN/A
12:50 AM55 °FOvercast.10 mph77%30.01 "HgN/A
12:20 AM54 °FMostly cloudy.13 mph82%30.01 "HgN/A
11:50 PM
Wed, May 25
55 °FMostly cloudy.13 mph77%29.98 "HgN/A
11:20 PM55 °FOvercast.15 mph82%29.98 "HgN/A
10:50 PM55 °FClear.13 mph82%29.98 "Hg10 mi
10:20 PM55 °FSunny.12 mph82%29.98 "Hg10 mi
Weather by CustomWeather, © 2016

See weather overviewHow to use our weather pages